Flag for Brazil Weather past 2 weeks in Santarém, Pará, Brazil

Now
77 °F

Partly sunny.


Feels Like: 78 °F
Forecast: 74 / 86 °F
Wind: 8 mph from East

Location: Santarem-Aeroporto

Current Time: Jul 6, 2015 at 8:31:49 AM

Latest Report: Jul 6, 2015 at 8:00 AM


Visibility: N/A

Pressure: 29.92 "Hg

Humidity: 89%

Dew point: 73 °F

Location of SantarémLocation

Historic Weather in Santarém — Graph

°F

Santarém temperature yesterday

Maximum temperature yesterday: 86 °F (at 1:00 PM)
Minimum temperature yesterday: 73 °F (at 2:00 AM)
Average temperature yesterday: 79 °F

Past Weeks' High & Low Weather Summary

 TemperatureHumidityPressure
High88 °F (Jun 24, 1:00 PM)100% (Jun 21, 7:00 AM)30.04 "Hg (Jun 21, 7:00 AM)
Low36 °F (Jul 3, 5:00 AM)66% (Jun 24, 1:00 PM)29.80 "Hg (Jul 2, 4:00 PM)
Average79 °F88%29.93 "Hg
* Reported Jun 21 7:00 AM — Jul 6 7:00 AM, Santarém, Weather by CustomWeather, © 2015

Note: Actual official high and low records may vary slightly from our data, if they occured in-between our weather recording intervals... More about our weather records

Advertising

Santarém weather history for previous 24 hours

 ConditionsComfort  
Time TempWeatherWind HumidityBarometerVisibility
7:00 AM
Mon, Jul 6
75 °FPassing clouds.7 mph94%29.92 "HgN/A
6:00 AM75 °FLight rain. Partly cloudy.8 mph94%29.92 "Hg4 mi
5:00 AM77 °FLight rain. Partly cloudy.9 mph89%29.89 "Hg3 mi
4:00 AM73 °FPassing clouds.No wind100%29.86 "HgN/A
3:00 AM73 °FPassing clouds.No wind100%29.86 "HgN/A
2:00 AM75 °FClear.2 mph94%29.89 "Hg10 mi
1:00 AM75 °FClear.No wind94%29.89 "Hg10 mi
12:00 AM75 °FClear.No wind94%29.89 "Hg10 mi
11:00 PM
Sun, Jul 5
75 °FThundershowers. Passing clouds.No wind94%29.89 "HgN/A
10:00 PM75 °FClear.2 mph94%29.89 "Hg10 mi
9:00 PM75 °FClear.No wind100%29.86 "Hg10 mi
8:00 PM77 °FClear.3 mph94%29.83 "Hg10 mi
7:00 PM81 °FPassing clouds.3 mph84%29.80 "HgN/A
6:00 PM86 °FPassing clouds.5 mph70%29.80 "HgN/A
5:00 PM86 °FPassing clouds.8 mph70%29.80 "HgN/A
4:00 PM86 °FPassing clouds.7 mph70%29.83 "HgN/A
3:00 PM86 °FPassing clouds.9 mph75%29.83 "HgN/A
2:00 PM86 °FScattered clouds.5 mph70%29.86 "HgN/A
1:00 PM86 °FPassing clouds.12 mph75%29.89 "HgN/A
12:00 PM84 °FPartly sunny.7 mph79%29.92 "HgN/A
11:00 AM82 °FPartly sunny.7 mph84%29.92 "HgN/A
10:00 AM82 °FPartly sunny.9 mph79%29.92 "HgN/A
9:00 AM81 °FPartly sunny.3 mph89%29.92 "HgN/A
8:00 AM77 °FScattered clouds.3 mph94%29.92 "HgN/A
Weather by CustomWeather, © 2015

See weather overviewHow to use our weather pages